{"data":{"norad_id":67840,"epoch":"2026-09-19T08:43:49.253664Z","epoch_age_seconds":164656,"freshness":"FRESH","line1":"1 67840U 26033V   26262.36376451  .00009612  00000+0  35834-3 0  9995","line2":"2 67840  43.0028 253.3150 0001323 271.4757  88.5943 15.27582275 34294","mean_motion":15.27582275,"eccentricity":0.0001323,"inclination_deg":43.0028,"raan_deg":253.315,"arg_perigee_deg":271.4757,"mean_anomaly_deg":88.5943,"bstar":0.00035834,"rev_number":3429,"period_min":94.266608323928,"perigee_km":482.13454986042,"apogee_km":483.95001789894,"semimajor_km":6861.1792838797,"source":"CELESTRAK","updated_at":"2026-09-20T09:00:43.670984Z"}}